Time,TemperatureF,DewpointF,PressureIn,WindDirection,WindDirectionDegrees,WindSpeedMPH,WindSpeedGustMPH,Humidity,HourlyPrecipIn,Conditions,Clouds,dailyrainin,SoftwareType,DateUTC
2013-02-25 00:02:00,13.0,9.0,-100.00,North,5,0.0,0.0,83,-99.99,,,-99.99,,2013-02-25 06:02:00,
2013-02-25 00:11:00,13.0,9.0,-100.00,North,5,0.0,0.0,83,-99.99,,,-99.99,,2013-02-25 06:11:00,
2013-02-25 00:42:00,12.0,8.0,-100.00,North,5,0.0,0.0,85,-99.99,,,-99.99,,2013-02-25 06:42:00,
2013-02-25 00:52:00,12.0,8.0,-100.00,North,5,0.0,0.0,85,-99.99,,,-99.99,,2013-02-25 06:52:00,
2013-02-25 01:01:00,12.0,8.0,-100.00,North,5,0.0,0.0,85,-99.99,,,-99.99,,2013-02-25 07:01:00,
2013-02-25 01:11:00,12.0,8.0,-100.00,North,5,0.0,0.0,85,-99.99,,,-99.99,,2013-02-25 07:11:00,
2013-02-25 01:42:00,11.0,8.0,-100.00,North,5,0.0,0.0,85,-99.99,,,-99.99,,2013-02-25 07:42:00,
2013-02-25 01:52:00,11.0,8.0,-100.00,North,5,0.0,0.0,85,-99.99,,,-99.99,,2013-02-25 07:52:00,
2013-02-25 02:01:00,11.0,8.0,-100.00,North,5,0.0,0.0,85,-99.99,,,-99.99,,2013-02-25 08:01:00,
2013-02-25 02:11:00,11.0,8.0,-100.00,North,5,0.0,0.0,85,-99.99,,,-99.99,,2013-02-25 08:11:00,
2013-02-25 02:42:00,10.0,7.0,-100.00,North,5,0.0,0.0,86,-99.99,,,-99.99,,2013-02-25 08:42:00,
2013-02-25 02:52:00,10.0,7.0,-100.00,North,5,0.0,0.0,86,-99.99,,,-99.99,,2013-02-25 08:52:00,
2013-02-25 03:01:00,10.0,7.0,-100.00,North,5,0.0,0.0,86,-99.99,,,-99.99,,2013-02-25 09:01:00,
2013-02-25 03:12:00,10.0,7.0,-100.00,North,5,0.0,0.0,86,-99.99,,,-99.99,,2013-02-25 09:12:00,
2013-02-25 03:42:00,10.0,7.0,-100.00,North,5,0.0,1.0,86,-99.99,,,-99.99,,2013-02-25 09:42:00,
2013-02-25 03:52:00,10.0,7.0,-100.00,North,5,0.0,1.0,86,-99.99,,,-99.99,,2013-02-25 09:52:00,
2013-02-25 04:01:00,10.0,7.0,-100.00,North,5,0.0,1.0,86,-99.99,,,-99.99,,2013-02-25 10:01:00,
2013-02-25 04:11:00,10.0,7.0,-100.00,North,5,0.0,1.0,86,-99.99,,,-99.99,,2013-02-25 10:11:00,
2013-02-25 04:42:00,10.0,7.0,-100.00,North,5,0.0,0.0,86,-99.99,,,-99.99,,2013-02-25 10:42:00,
2013-02-25 04:52:00,10.0,7.0,-100.00,North,5,0.0,0.0,86,-99.99,,,-99.99,,2013-02-25 10:52:00,
2013-02-25 05:01:00,10.0,7.0,-100.00,North,5,0.0,0.0,86,-99.99,,,-99.99,,2013-02-25 11:01:00,
2013-02-25 05:11:00,10.0,7.0,-100.00,North,5,0.0,0.0,86,-99.99,,,-99.99,,2013-02-25 11:11:00,
2013-02-25 05:42:00,11.0,8.0,-100.00,North,5,0.0,0.0,86,-99.99,,,-99.99,,2013-02-25 11:42:00,
2013-02-25 05:52:00,11.0,8.0,-100.00,North,5,0.0,0.0,86,-99.99,,,-99.99,,2013-02-25 11:52:00,
2013-02-25 06:02:00,11.0,8.0,-100.00,North,5,0.0,0.0,86,-99.99,,,-99.99,,2013-02-25 12:02:00,
2013-02-25 06:11:00,11.0,8.0,-100.00,North,5,0.0,0.0,86,-99.99,,,-99.99,,2013-02-25 12:11:00,
2013-02-25 06:42:00,15.0,11.0,-100.00,North,5,0.0,0.0,86,-99.99,,,-99.99,,2013-02-25 12:42:00,
2013-02-25 06:55:00,15.0,11.0,-100.00,North,5,0.0,0.0,86,-99.99,,,-99.99,,2013-02-25 12:55:00,
2013-02-25 07:02:00,15.0,11.0,-100.00,North,5,0.0,0.0,86,-99.99,,,-99.99,,2013-02-25 13:02:00,
2013-02-25 07:12:00,15.0,11.0,-100.00,North,5,0.0,0.0,86,-99.99,,,-99.99,,2013-02-25 13:12:00,
2013-02-25 07:17:00,18.0,15.0,-100.00,NNE,15,0.0,1.0,86,-99.99,,,-99.99,,2013-02-25 13:17:00,
2013-02-25 07:42:00,18.0,15.0,-100.00,NNE,15,0.0,1.0,86,-99.99,,,-99.99,,2013-02-25 13:42:00,
2013-02-25 07:52:00,18.0,15.0,-100.00,NNE,15,0.0,1.0,86,-99.99,,,-99.99,,2013-02-25 13:52:00,
2013-02-25 08:03:00,18.0,15.0,-100.00,NNE,15,0.0,1.0,86,-99.99,,,-99.99,,2013-02-25 14:03:00,
2013-02-25 08:42:00,21.0,17.0,-100.00,NNE,15,0.0,0.0,85,-99.99,,,-99.99,,2013-02-25 14:42:00,
2013-02-25 08:52:00,21.0,17.0,-100.00,NNE,15,0.0,0.0,85,-99.99,,,-99.99,,2013-02-25 14:52:00,
2013-02-25 09:02:00,21.0,17.0,-100.00,NNE,15,0.0,0.0,85,-99.99,,,-99.99,,2013-02-25 15:02:00,
2013-02-25 09:11:00,21.0,17.0,-100.00,NNE,15,0.0,0.0,85,-99.99,,,-99.99,,2013-02-25 15:11:00,
2013-02-25 09:42:00,26.0,20.0,-100.00,North,0,0.0,0.0,78,-99.99,,,-99.99,,2013-02-25 15:42:00,
2013-02-25 09:52:00,26.0,20.0,-100.00,North,0,0.0,0.0,78,-99.99,,,-99.99,,2013-02-25 15:52:00,
2013-02-25 10:02:00,26.0,20.0,-100.00,North,0,0.0,0.0,78,-99.99,,,-99.99,,2013-02-25 16:02:00,
2013-02-25 10:11:00,26.0,20.0,-100.00,North,0,0.0,0.0,78,-99.99,,,-99.99,,2013-02-25 16:11:00,
2013-02-25 10:20:00,30.0,22.0,-100.00,NNE,20,0.0,2.0,71,-99.99,,,-99.99,,2013-02-25 16:20:00,
2013-02-25 10:42:00,30.0,22.0,-100.00,NNE,20,0.0,2.0,71,-99.99,,,-99.99,,2013-02-25 16:42:00,
2013-02-25 10:52:00,30.0,22.0,-100.00,NNE,20,0.0,2.0,71,-99.99,,,-99.99,,2013-02-25 16:52:00,
2013-02-25 11:01:00,30.0,22.0,-100.00,NNE,20,0.0,2.0,71,-99.99,,,-99.99,,2013-02-25 17:01:00,
2013-02-25 11:11:00,30.0,22.0,-100.00,NNE,20,0.0,2.0,71,-99.99,,,-99.99,,2013-02-25 17:11:00,
2013-02-25 11:42:00,33.0,19.0,-100.00,NE,40,0.0,2.0,57,-99.99,,,-99.99,,2013-02-25 17:42:00,
2013-02-25 11:52:00,33.0,19.0,-100.00,NE,40,0.0,2.0,57,-99.99,,,-99.99,,2013-02-25 17:52:00,
2013-02-25 12:01:00,33.0,19.0,-100.00,NE,40,0.0,2.0,57,-99.99,,,-99.99,,2013-02-25 18:01:00,
2013-02-25 12:12:00,33.0,19.0,-100.00,NE,40,0.0,2.0,57,-99.99,,,-99.99,,2013-02-25 18:12:00,
2013-02-25 12:20:00,36.0,18.0,-100.00,NNE,25,0.0,2.0,47,-99.99,,,-99.99,,2013-02-25 18:20:00,
2013-02-25 12:42:00,36.0,18.0,-100.00,NNE,25,0.0,2.0,47,-99.99,,,-99.99,,2013-02-25 18:42:00,
2013-02-25 12:52:00,36.0,18.0,-100.00,NNE,25,0.0,2.0,47,-99.99,,,-99.99,,2013-02-25 18:52:00,
2013-02-25 13:01:00,36.0,18.0,-100.00,NNE,25,0.0,2.0,47,-99.99,,,-99.99,,2013-02-25 19:01:00,
2013-02-25 13:11:00,36.0,18.0,-100.00,NNE,25,0.0,2.0,47,-99.99,,,-99.99,,2013-02-25 19:11:00,
2013-02-25 13:42:00,35.0,14.0,-100.00,North,0,1.0,4.0,42,-99.99,,,-99.99,,2013-02-25 19:42:00,
2013-02-25 13:52:00,35.0,14.0,-100.00,North,0,1.0,4.0,42,-99.99,,,-99.99,,2013-02-25 19:52:00,
2013-02-25 14:42:00,34.0,15.0,-100.00,NNE,20,1.0,3.0,44,-99.99,,,-99.99,,2013-02-25 20:42:00,
2013-02-25 14:52:00,34.0,15.0,-100.00,NNE,20,1.0,3.0,44,-99.99,,,-99.99,,2013-02-25 20:52:00,
2013-02-25 15:01:00,34.0,15.0,-100.00,NNE,20,1.0,3.0,44,-99.99,,,-99.99,,2013-02-25 21:01:00,
2013-02-25 15:42:00,34.0,16.0,-100.00,NE,55,1.0,4.0,47,-99.99,,,-99.99,,2013-02-25 21:42:00,
2013-02-25 15:52:00,34.0,16.0,-100.00,NE,55,1.0,4.0,47,-99.99,,,-99.99,,2013-02-25 21:52:00,
2013-02-25 16:01:00,34.0,16.0,-100.00,NE,55,1.0,4.0,47,-99.99,,,-99.99,,2013-02-25 22:01:00,
2013-02-25 16:42:00,34.0,16.0,-100.00,NNE,30,0.0,1.0,47,-99.99,,,-99.99,,2013-02-25 22:42:00,
2013-02-25 16:52:00,34.0,16.0,-100.00,NNE,30,0.0,1.0,47,-99.99,,,-99.99,,2013-02-25 22:52:00,
2013-02-25 17:01:00,34.0,16.0,-100.00,NNE,30,0.0,1.0,47,-99.99,,,-99.99,,2013-02-25 23:01:00,
2013-02-25 17:42:00,34.0,15.0,-100.00,NNE,25,1.0,2.0,47,-99.99,,,-99.99,,2013-02-25 23:42:00,
2013-02-25 17:52:00,34.0,15.0,-100.00,NNE,25,1.0,2.0,47,-99.99,,,-99.99,,2013-02-25 23:52:00,
2013-02-25 18:42:00,32.0,17.0,-100.00,North,10,0.0,0.0,55,-99.99,,,-99.99,,2013-02-26 00:42:00,
2013-02-25 18:52:00,32.0,17.0,-100.00,North,10,0.0,0.0,55,-99.99,,,-99.99,,2013-02-26 00:52:00,
2013-02-25 19:02:00,32.0,17.0,-100.00,North,10,0.0,0.0,55,-99.99,,,-99.99,,2013-02-26 01:02:00,
2013-02-25 19:11:00,32.0,17.0,-100.00,North,10,0.0,0.0,55,-99.99,,,-99.99,,2013-02-26 01:11:00,
2013-02-25 19:21:00,32.0,17.0,-100.00,North,10,0.0,0.0,55,-99.99,,,-99.99,,2013-02-26 01:21:00,
2013-02-25 19:42:00,29.0,16.0,-100.00,North,10,0.0,0.0,60,-99.99,,,-99.99,,2013-02-26 01:42:00,
2013-02-25 19:52:00,29.0,16.0,-100.00,North,10,0.0,0.0,60,-99.99,,,-99.99,,2013-02-26 01:52:00,
2013-02-25 20:01:00,29.0,16.0,-100.00,North,10,0.0,0.0,60,-99.99,,,-99.99,,2013-02-26 02:01:00,
2013-02-25 20:11:00,29.0,16.0,-100.00,North,10,0.0,0.0,60,-99.99,,,-99.99,,2013-02-26 02:11:00,
2013-02-25 20:42:00,25.0,15.0,-100.00,North,10,0.0,1.0,68,-99.99,,,-99.99,,2013-02-26 02:42:00,
2013-02-25 20:52:00,25.0,15.0,-100.00,North,10,0.0,1.0,68,-99.99,,,-99.99,,2013-02-26 02:52:00,
2013-02-25 21:02:00,25.0,15.0,-100.00,North,10,0.0,1.0,68,-99.99,,,-99.99,,2013-02-26 03:02:00,
2013-02-25 21:11:00,25.0,15.0,-100.00,North,10,0.0,1.0,68,-99.99,,,-99.99,,2013-02-26 03:11:00,
2013-02-25 21:20:00,24.0,17.0,-100.00,North,10,0.0,0.0,75,-99.99,,,-99.99,,2013-02-26 03:20:00,
2013-02-25 21:42:00,24.0,17.0,-100.00,North,10,0.0,0.0,75,-99.99,,,-99.99,,2013-02-26 03:42:00,
2013-02-25 21:52:00,24.0,17.0,-100.00,North,10,0.0,0.0,75,-99.99,,,-99.99,,2013-02-26 03:52:00,
2013-02-25 22:01:00,24.0,17.0,-100.00,North,10,0.0,0.0,75,-99.99,,,-99.99,,2013-02-26 04:01:00,
2013-02-25 22:11:00,24.0,17.0,-100.00,North,10,0.0,0.0,75,-99.99,,,-99.99,,2013-02-26 04:11:00,
2013-02-25 22:20:00,24.0,18.0,-100.00,North,0,0.0,1.0,80,-99.99,,,-99.99,,2013-02-26 04:20:00,
2013-02-25 22:42:00,24.0,18.0,-100.00,North,0,0.0,1.0,80,-99.99,,,-99.99,,2013-02-26 04:42:00,
2013-02-25 22:52:00,24.0,18.0,-100.00,North,0,0.0,1.0,80,-99.99,,,-99.99,,2013-02-26 04:52:00,
2013-02-25 23:01:00,24.0,18.0,-100.00,North,0,0.0,1.0,80,-99.99,,,-99.99,,2013-02-26 05:01:00,
2013-02-25 23:12:00,24.0,18.0,-100.00,North,0,0.0,1.0,80,-99.99,,,-99.99,,2013-02-26 05:12:00,
2013-02-25 23:20:00,19.0,15.0,-100.00,West,260,0.0,1.0,82,-99.99,,,-99.99,,2013-02-26 05:20:00,
2013-02-25 23:43:00,19.0,15.0,-100.00,West,260,0.0,1.0,82,-99.99,,,-99.99,,2013-02-26 05:43:00,
2013-02-25 23:52:00,19.0,15.0,-100.00,West,260,0.0,1.0,82,-99.99,,,-99.99,,2013-02-26 05:52:00,